Regional Weather Roundup
Issued by NWS Sioux Falls, SD

Home | Current Version | Previous Version | Text Only | Print | Product List | Glossary On
Versions: 1 2 3 4 5 6 7 8 9 10 11 12 13 14 15 16 17 18 19 20 21 22 23 24 25 26 27 28 29 30 31 32 33 34 35 36 37 38 39 40 41 42 43 44 45 46 47 48 49 50
000
ASUS43 KFSD 031310
RWRFSD

WEATHER ROUNDUP FOR SE SOUTH DAKOTA/SW MINNESOTA/NW IOWA
NATIONAL WEATHER SERVICE SIOUX FALLS SD
800 AM CDT TUE MAY 03 2016

NOTE: "FAIR" INDICATES FEW OR NO CLOUDS BELOW 12,000 FEET WITH NO
SIGNIFICANT WEATHER AND OR OBSTRUCTIONS TO VISIBILITY.


SDZ038>040-050-052>070-031400-
SOUTHEAST SOUTH DAKOTA

CITY           SKY/WX    TMP DP  RH WIND       PRES   REMARKS
BROOKINGS      FAIR      43  40  89 CALM      30.01S
CHAMBERLAIN    FAIR      45  43  95 W9        30.05S
HURON          FAIR      45  42  89 MISG      30.03R
MADISON        FAIR      45  45 100 W7        30.02S
MITCHELL       FAIR      47  44  90 W8        30.05R
SIOUX FALLS    FAIR      47  41  80 W3        30.03R
WINNER         FAIR      45  39  79 W6        30.07R
YANKTON        FAIR      48  45  87 NW7       30.04S
$$

MNZ071-072-080-081-089-090-097-098-031400-
SOUTHWEST MINNESOTA

CITY           SKY/WX    TMP DP  RH WIND       PRES   REMARKS
FAIRMONT       FAIR      50  39  66 W8        29.99S
JACKSON        FAIR      50  39  66 W3        30.00F
LUVERNE        FAIR      43  37  81 CALM      30.03R
MARSHALL       FAIR      53  42  66 W8        29.99S
MONTEVIDEO     FAIR      50  39  66 NW6       29.99S
PIPESTONE      FAIR      46  43  87 W3        30.01S
REDWOOD FALLS  FAIR      51  39  63 W10       29.98R
TRACY          FAIR      53  42  68 SW6       30.00S
WINDOM         FAIR      50  43  76 CALM      30.00S
WORTHINGTON    FAIR      51  41  68 W6        30.02S
$$

IAZ001>003-012>014-020>022-031-032-NEZ013-014-SDZ071-031400-
NORTHWEST IOWA

CITY           SKY/WX    TMP DP  RH WIND       PRES   REMARKS
CHEROKEE       FAIR      41  41 100 CALM      30.04S
DENISON        FAIR      45  41  87 CALM      30.04R
ESTHERVILLE    FAIR      50  44  80 W6        30.00F
LE MARS        FAIR      45  41  87 CALM      30.05S
ORANGE CITY    FAIR      46  43  87 CALM      30.03S
SHELDON        FAIR      46  41  81 CALM      30.02R
SIOUX CITY     PTSUNNY   48  44  86 CALM      30.05S
SPENCER        FAIR      46  40  79 CALM      30.02F
STORM LAKE     FAIR      48  41  76 SW7       30.04S
$$

ABBREVIATIONS USED IN REMARKS
   TC - TEMPERATURE IN CELSIUS
  WCI - WIND CHILL INDEX
   HX - HEAT INDEX
  VSB - VISIBILITY





USA.gov is the U.S. government's official web portal to all federal, state and local government web resources and services.